Temp
51 50 49 49 47 46 47 46 44 44 46 46 46 46 47 47 47 47 47 47 49 49
51 50 49 48 47 47 46 45 44 44 43 45 45 45 45 44 44 45 45 45 47 49
52 51 50 48 47 47 45 45 44 45 45 44 44 44 44 43 43 43 43 44 45 46
52 53 51 50 50 47 45 45 45 45 44 43 43 43 42 42 43 43 42 43 43 44
51 51 51 49 47 44 45 45 45 45 44 43 43 42 42 42 43 42 41 41 42 43
51 49 49 48 46 45 46 45 44 44 43 43 42 42 41 41 41 41 41 41 42 43
51 50 49 49 50 48 46 45 44 44 44 43 43 43 42 42 40 40 42 42 42 43
52 52 50 50 48 47 45 45 45 44 43 43 42 43 42 42 40 40 40 41 43 42
53 52 51 50 47 46 45 44 43 42 42 40 42 41 41 41 40 41 40 38 37 38
53 52 52 50 47 45 43 43 42 41 41 40 38 40 40 39 39 38 38 38 37 39
52 51 51 48 46 46 45 43 42 41 41 40 39 39 39 38 37 37 37 38 37 36
49 47 45 45 44 43 45 44 42 42 40 40 39 38 39 38 37 36 36 36 35 36
47 46 43 42 43 40 42 41 41 38 40 39 36 38 38 38 37 34 34 34 35 36
46 44 42 41 40 39 37 35 35 34 35 36 37 37 38 37 35 34 34 33 33 33
MSLP
1012.43 1012.79 1013.03 1013.37 1013.77 1013.92 1013.90 1013.72 1013.86 1014.31 1014.54 1014.73 1014.96 1015.23 1015.62 1015.92 1015.76 1015.81 1016.02 1016.14 1016.44 1016.24
1011.59 1012.14 1012.35 1012.36 1012.62 1012.96 1013.14 1013.36 1013.63 1014.04 1014.24 1014.41 1014.61 1014.97 1015.30 1015.59 1015.75 1015.88 1016.10 1016.17 1016.15 1016.09
1010.69 1011.23 1011.85 1012.15 1012.08 1012.20 1012.65 1013.21 1013.48 1013.73 1014.15 1014.44 1014.59 1014.86 1015.11 1015.35 1015.61 1015.85 1016.22 1016.34 1016.31 1016.26
1010.55 1010.80 1010.71 1011.64 1011.48 1011.78 1012.35 1012.90 1013.25 1013.63 1013.87 1014.01 1014.35 1014.63 1014.90 1015.14 1015.44 1015.72 1016.10 1016.35 1016.66 1016.66
1009.94 1010.04 1010.24 1010.82 1011.17 1011.67 1012.22 1012.63 1012.98 1013.54 1013.87 1013.95 1014.24 1014.50 1014.82 1015.12 1015.21 1015.65 1015.94 1016.25 1016.61 1016.90
1009.45 1009.71 1009.94 1010.46 1010.94 1011.61 1012.01 1012.39 1012.76 1013.10 1013.26 1013.65 1013.94 1014.30 1014.79 1015.14 1015.33 1015.66 1015.87 1016.05 1016.29 1016.44
1008.95 1009.16 1009.45 1009.59 1009.97 1010.56 1011.30 1011.90 1012.28 1012.53 1013.05 1013.26 1013.65 1014.10 1014.48 1015.09 1015.46 1015.67 1015.73 1015.96 1016.23 1016.58
1008.20 1008.10 1008.51 1008.81 1009.22 1009.99 1010.52 1010.93 1011.45 1011.98 1012.41 1012.81 1013.03 1013.69 1014.24 1014.77 1015.35 1015.57 1015.74 1015.95 1016.41 1016.78
1007.66 1007.39 1007.49 1007.89 1008.57 1009.26 1009.92 1010.61 1011.06 1011.47 1011.81 1012.24 1012.53 1012.95 1013.71 1014.27 1014.92 1015.30 1015.60 1016.09 1016.43 1016.82
1007.06 1006.75 1006.86 1007.36 1008.26 1008.95 1009.63 1009.97 1010.56 1010.97 1011.25 1011.64 1012.09 1012.50 1013.30 1013.86 1014.43 1014.89 1015.24 1015.68 1016.15 1016.47
1007.26 1007.35 1006.93 1007.15 1007.60 1008.06 1008.72 1009.45 1009.80 1010.20 1010.64 1011.06 1011.62 1012.14 1012.70 1013.33 1014.32 1014.78 1015.17 1015.51 1015.78 1016.46
1007.40 1007.54 1007.53 1007.50 1007.65 1007.99 1008.23 1008.74 1009.16 1009.49 1010.00 1010.50 1011.14 1011.66 1012.46 1013.31 1014.31 1014.79 1015.42 1015.78 1016.12 1016.38
1007.31 1007.55 1007.71 1007.72 1007.81 1007.97 1008.07 1008.25 1008.64 1009.09 1009.44 1010.01 1010.80 1011.55 1012.49 1013.23 1014.22 1015.05 1015.59 1016.00 1016.37 1016.72
1007.51 1007.49 1007.48 1007.74 1008.21 1008.38 1008.44 1008.55 1008.80 1009.16 1009.63 1010.14 1010.75 1011.61 1012.41 1013.01 1014.03 1014.67 1015.40 1015.95 1016.49 1016.89
Wind_Speed
8 6 6 7 6 7 7 8 7 6 6 6 5 5 4 3 3 5 3 5 4 8
9 9 9 10 8 7 7 5 6 5 6 7 6 6 6 4 4 4 4 3 2 7
11 9 7 8 10 9 6 6 7 8 8 7 6 6 6 4 4 5 4 3 2 4
6 7 10 10 9 7 6 7 8 9 9 9 9 7 6 4 4 5 4 5 4 3
6 7 7 9 6 6 8 8 8 7 8 9 8 7 7 7 7 8 6 4 5 4
5 6 8 7 7 7 8 8 9 10 11 11 10 10 8 7 6 6 5 3 3 4
4 9 10 9 11 11 10 10 10 10 11 11 10 10 10 9 8 7 7 7 6 5
8 7 8 11 11 11 11 11 11 10 10 10 11 9 12 11 10 9 8 7 7 7
8 8 8 7 10 12 11 10 10 12 12 12 9 13 17 13 10 11 11 9 7 6
8 8 6 6 9 10 10 10 11 11 11 12 10 14 12 13 7 7 7 9 8 4
5 4 2 6 8 9 11 12 11 12 12 11 10 18 18 15 6 6 6 6 6 6
2 0 2 3 4 4 7 10 10 10 11 11 10 20 21 17 9 7 7 6 7 8
5 3 4 2 2 1 1 5 7 8 10 11 9 19 21 15 8 10 8 6 6 11
6 3 5 4 1 1 2 4 5 6 6 9 12 15 24 19 9 8 7 7 5 4
Wind_Direction
190 183 179 188 191 203 207 212 182 181 179 178 176 175 177 171 146 122 104 115 202 133
192 186 197 197 196 206 212 204 195 187 180 181 178 182 178 168 157 125 110 99 82 127
191 188 198 192 204 204 199 186 176 181 181 177 168 159 156 154 146 148 140 129 75 94
169 183 180 216 214 193 155 175 182 182 177 170 166 161 159 166 175 182 158 138 147 124
191 199 190 213 196 156 168 174 179 179 186 173 169 157 170 185 195 204 185 153 158 160
205 195 199 192 165 168 172 181 187 190 180 183 178 174 180 190 189 187 192 181 186 146
215 197 195 185 188 180 183 186 191 189 196 185 178 180 181 187 192 196 194 188 176 176
249 220 191 194 182 184 183 188 188 188 188 184 177 182 185 185 199 196 195 187 198 214
245 236 213 179 171 173 179 184 184 191 191 186 184 179 185 186 197 203 192 160 131 151
268 244 212 160 161 171 189 180 193 196 190 191 186 170 159 143 151 149 144 145 144 140
21 22 53 157 183 178 175 190 193 196 198 194 188 173 167 143 142 138 138 155 138 144
353 11 101 172 186 185 184 189 198 196 189 188 186 173 170 159 170 154 163 167 149 146
317 174 124 115 125 200 208 192 184 184 188 174 158 166 160 158 164 165 163 151 154 158
289 143 123 96 52 133 101 99 111 119 128 142 154 164 160 156 159 164 157 161 156 156